EUTELSAT HOTBIRD 13C

Last updated on Mon Sep 15 2025 00:02:46 GMT+0000 (Coordinated Universal Time)

1 33459U 08065A 25257.22607663 -.00000112 00000+0 00000+0 0 9999 2 33459 2.2357 82.4626 0004670 117.6575 222.2294 1.00271391 44579
UTC large
Height (km)
Speed (km/s)
/
Latitude / Longitude
Inclination (degrees)
Orbital Period (minutes)
Azimuth
Elevation
Range (km)
Doppler Factor

Next 0 passes for location: London (51.5072 / 0.1276)

Sorry there are no passes over London.